[Iaude] MPEC D121: 2024 DS1 [a=1.91,e=0.63,i=16.6,H=20.3]
    mpec at cfa.harvard.edu 
    mpec at cfa.harvard.edu
       
    Fri Feb 23 16:17:34 EST 2024
    
    
  
M.P.E.C. 2024-D121                            Issued 2024 February 23, 21:16 UT
     The Minor Planet Electronic Circulars contain information on unusual
         minor planets, routine data on comets and natural satellites,
         and occasional editorial announcements.  They are published
    on behalf of Division F of the International Astronomical Union by the
          Minor Planet Center, Smithsonian Astrophysical Observatory,
                          Cambridge, MA 02138, U.S.A.
			  
             Prepared using the Tamkin Foundation Computer Network
                              MPC at CFA.HARVARD.EDU
            URL https://www.minorplanetcenter.net/    ISSN 1523-6714
                                    2024 DS1                                    
Observations:
     K24D01S* C2024 02 21.46796110 24 33.885+65 01 41.98         20.61iXED121F52
     K24D01S  C2024 02 21.48035210 24 29.370+65 00 44.17         20.47iXED121F52
     K24D01S  C2024 02 21.49279610 24 24.776+64 59 45.82         20.48iXED121F52
     K24D01S  C2024 02 22.39237710 19 35.316+63 50 31.61         19.99iXED121F52
     K24D01S  C2024 02 22.40221310 19 32.065+63 49 46.67         20.22iXED121F52
     K24D01S  C2024 02 22.42189610 19 25.694+63 48 17.40         19.94iXED121F52
     K24D01S  C2024 02 22.44856810 19 17.048+63 46 15.40         19.84GVED121F51
     K24D01S  C2024 02 22.44938310 19 16.801+63 46 11.70         20.26GVED121F51
     K24D01S KC2024 02 22.81274510 17 31.435+63 18 13.68         20.2 GVED121J95
     K24D01S KC2024 02 22.83861510 17 23.813+63 16 17.76         20.3 GVED121J95
     K24D01S KC2024 02 23.85443310 12 49.342+62 00 04.43         20.5 GVED121J95
     K24D01S KC2024 02 23.86655010 12 46.171+61 59 10.97         19.8 GVED121J95
Observer details:
F51 Pan-STARRS 1, Haleakala.  Observers J. Herman, T. Lowe, P. Minguez, A.
    Schultz, I. Smith.  Measurers K. Chambers, T. de Boer, J. Fairlamb, H.
    Gao, M. Huber, C.-C. Lin, E. Magnier, Y. Ramanjooloo, R. Wainscoat, R.
    Weryk.  1.8-m Ritchey-Chretien + CCD.
F52 Pan-STARRS 2, Haleakala.  Observers J. Herman, T. Lowe, P. Minguez, A.
    Schultz, I. Smith.  Measurers K. Chambers, T. de Boer, J. Fairlamb, H.
    Gao, M. Huber, C.-C. Lin, E. Magnier, Y. Ramanjooloo, R. Wainscoat, R.
    Weryk.  1.8-m Ritchey-Chretien + CCD.
J95 Great Shefford.  Observer P. Birtwhistle.  0.41-m f/6.3 Schmidt-Cassegrain
    + CCD.
Orbital elements:
2024 DS1                                                 Earth MOID = 0.1853 AU
Epoch 2024 Mar. 31.0 TT = JDT 2460400.5                 MPC                     
M  40.76635              (2000.0)            P               Q                  
n   0.37360406     Peri.   29.82199     +0.66073176     -0.74463999             
a   1.9092450      Node    19.34367     +0.61976479     +0.47011474             
e   0.6297423      Incl.   16.59053     +0.42346801     +0.47381791             
P   2.64           H   20.39          G   0.15           U   9                  
Residuals in seconds of arc
240221 F52  0.0   0.0     240222 F52  0.1-  0.3-    240222 J95  0.1-  0.1+
240221 F52  0.2+  0.0     240222 F52  0.0   0.1+    240222 J95  0.2-  0.1-
240221 F52  0.1-  0.1-    240222 F51  0.0   0.1+    240223 J95  0.2+  0.1+
240222 F52  0.3+  0.1-    240222 F51  0.1+  0.1+    240223 J95  0.2+  0.1-
Ephemeris:
2024 DS1                 a,e,i = 1.91, 0.63, 17                  q = 0.7069
Date    TT    R. A. (2000) Decl.     Delta      r    Elong.  Phase     V
2024 01 24    19 34 16.7 +56 50 47   0.2779  0.9605    76.9    86.7    20.6
...
2024 02 08    14 50 59.2 +79 04 41   0.2982  1.1088   106.6    58.5    20.1
...
2024 02 16    11 12 53.2 +72 13 50   0.3368  1.1895   119.3    46.4    20.2
...
2024 02 22    10 21 37.4 +64 20 25   0.3776  1.2498   126.2    39.7    20.3
2024 02 23    10 16 36.2 +63 04 11   0.3853  1.2598   127.1    38.8    20.4
2024 02 24    10 12 11.4 +61 49 21   0.3933  1.2698   128.0    37.9    20.4
...
2024 03 01    09 54 26.4 +54 53 43   0.4464  1.3294   131.5    33.9    20.7
...
2024 03 09    09 43 44.7 +47 10 16   0.5299  1.4075   132.8    31.2    21.1
...
2024 03 24    09 40 47.1 +36 27 35   0.7197  1.5492   128.2    30.4    21.9
A. U. Tomatic                (C) Copyright 2024 MPC           M.P.E.C. 2024-D121
    
    
More information about the Iaude
mailing list